DAL7326 LIMC-LIRF

Flight info

Callsign DAL7326
Flight time 0h 53m
Altitude 37000
Route ROBAS DCT TINKU DCT XIBIL
Aircraft A20N/M-SDE2E3FGHIRWXY/LB1

Departure

Time 2026-05-04 18:44
Airport Milan Malpensa International Airport (LIMC)

Arrival

Time 2026-05-04 19:38
Airport Rome–Fiumicino Leonardo da Vinci International Airport (LIRF)
Time Latitude Longitude Altitude Speed Heading
2026-05-04 18:29 45.62401 8.71715 727 ft 0 kts 345°
2026-05-04 18:36 45.62392 8.71718 727 ft 3 kts 345°
2026-05-04 18:36 45.62372 8.71726 726 ft 3 kts 345°
2026-05-04 18:36 45.62352 8.71733 725 ft 3 kts 345°
2026-05-04 18:37 45.62332 8.71733 725 ft 3 kts 27°
2026-05-04 18:37 45.62316 8.71716 726 ft 3 kts 60°
2026-05-04 18:37 45.62312 8.71705 725 ft 0 kts 76°
2026-05-04 18:39 45.62313 8.71709 725 ft 2 kts 76°
2026-05-04 18:39 45.62322 8.71761 727 ft 8 kts 77°
2026-05-04 18:39 45.62336 8.71856 728 ft 11 kts 77°
2026-05-04 18:39 45.62356 8.71977 727 ft 13 kts 77°
2026-05-04 18:40 45.62377 8.72116 726 ft 15 kts 78°
2026-05-04 18:40 45.62357 8.72221 725 ft 11 kts 155°
2026-05-04 18:40 45.62268 8.72248 724 ft 15 kts 161°
2026-05-04 18:40 45.62228 8.72359 722 ft 12 kts 88°
2026-05-04 18:41 45.62236 8.72470 722 ft 13 kts 85°
2026-05-04 18:41 45.62258 8.72598 723 ft 14 kts 74°
2026-05-04 18:41 45.62279 8.72735 722 ft 15 kts 81°
2026-05-04 18:41 45.62300 8.72896 722 ft 17 kts 74°
2026-05-04 18:42 45.62274 8.73030 719 ft 16 kts 155°
2026-05-04 18:42 45.62153 8.73064 719 ft 19 kts 166°
2026-05-04 18:42 45.62010 8.73101 714 ft 22 kts 171°
2026-05-04 18:42 45.61847 8.73143 713 ft 25 kts 169°
2026-05-04 18:43 45.61711 8.73276 704 ft 24 kts 126°
2026-05-04 18:43 45.61609 8.73482 695 ft 25 kts 120°
2026-05-04 18:43 45.61599 8.73695 694 ft 19 kts 57°
2026-05-04 18:43 45.61709 8.73715 693 ft 28 kts 350°
2026-05-04 18:44 45.62144 8.73591 714 ft 96 kts 349°
2026-05-04 18:44 45.62662 8.73450 726 ft 132 kts 349°
2026-05-04 18:44 45.64074 8.73057 1051 ft 164 kts 349°
2026-05-04 18:44 45.65233 8.72735 1584 ft 171 kts 351°
2026-05-04 18:45 45.66366 8.72597 2479 ft 158 kts 358°
2026-05-04 18:45 45.67498 8.72583 2962 ft 171 kts 359°
2026-05-04 18:45 45.68759 8.72594 3381 ft 191 kts 360°
2026-05-04 18:45 45.70163 8.72596 3842 ft 212 kts 359°
2026-05-04 18:46 45.71699 8.72553 4286 ft 231 kts 351°
2026-05-04 18:46 45.73176 8.71620 5002 ft 236 kts 318°
2026-05-04 18:46 45.74104 8.69704 5764 ft 239 kts 287°
2026-05-04 18:46 45.74222 8.67339 6525 ft 242 kts 256°
2026-05-04 18:47 45.73600 8.65101 7373 ft 242 kts 239°
2026-05-04 18:47 45.72746 8.63037 8321 ft 241 kts 236°
2026-05-04 18:47 45.71889 8.60966 9233 ft 242 kts 237°
2026-05-04 18:47 45.70982 8.58933 10094 ft 244 kts 232°
2026-05-04 18:48 45.69996 8.56840 10526 ft 264 kts 233°
2026-05-04 18:48 45.68943 8.54549 10850 ft 286 kts 231°
2026-05-04 18:48 45.67525 8.52430 11140 ft 305 kts 216°
2026-05-04 18:48 45.65668 8.50885 11461 ft 322 kts 201°
2026-05-04 18:49 45.63563 8.49688 12192 ft 326 kts 201°
2026-05-04 18:49 45.61438 8.48479 12980 ft 330 kts 199°
2026-05-04 18:49 45.59163 8.47930 13746 ft 337 kts 181°
2026-05-04 18:49 45.56834 8.48529 14399 ft 347 kts 161°
2026-05-04 18:50 45.54740 8.50299 15041 ft 357 kts 141°
2026-05-04 18:50 45.53174 8.53035 15661 ft 368 kts 122°
2026-05-04 18:50 45.52130 8.56431 16306 ft 376 kts 114°
2026-05-04 18:50 45.51194 8.59927 16966 ft 380 kts 113°
2026-05-04 18:51 45.50257 8.63475 17594 ft 384 kts 113°
2026-05-04 18:51 45.49297 8.67048 18220 ft 388 kts 114°
2026-05-04 18:51 45.48320 8.70624 18782 ft 392 kts 114°
2026-05-04 18:51 45.47316 8.74251 19377 ft 394 kts 114°
2026-05-04 18:52 45.46304 8.77883 19949 ft 396 kts 114°
2026-05-04 18:52 45.45280 8.81550 20512 ft 399 kts 114°
2026-05-04 18:52 45.44248 8.85235 21079 ft 402 kts 114°
2026-05-04 18:52 45.43210 8.88938 21647 ft 405 kts 114°
2026-05-04 18:53 45.42160 8.92681 22203 ft 408 kts 114°
2026-05-04 18:53 45.41103 8.96442 22751 ft 410 kts 114°
2026-05-04 18:53 45.40042 9.00212 23316 ft 413 kts 114°
2026-05-04 18:53 45.38967 9.04026 23851 ft 416 kts 114°
2026-05-04 18:54 45.37884 9.07864 24291 ft 419 kts 114°
2026-05-04 18:54 45.36796 9.11715 24725 ft 422 kts 114°
2026-05-04 18:54 45.35693 9.15612 25157 ft 425 kts 114°
2026-05-04 18:54 45.34584 9.19524 25558 ft 428 kts 114°
2026-05-04 18:55 45.33465 9.23466 25951 ft 432 kts 114°
2026-05-04 18:55 45.31200 9.31425 26735 ft 437 kts 115°
2026-05-04 18:55 45.30053 9.35445 27104 ft 440 kts 115°
2026-05-04 18:56 45.28911 9.39440 27475 ft 443 kts 115°
2026-05-04 18:56 45.27745 9.43515 27847 ft 446 kts 115°
2026-05-04 18:56 45.26573 9.47603 28189 ft 448 kts 115°
2026-05-04 18:56 45.25397 9.51699 28526 ft 451 kts 115°
2026-05-04 18:57 45.24204 9.55849 28848 ft 454 kts 115°
2026-05-04 18:57 45.23004 9.60015 29152 ft 456 kts 115°
2026-05-04 18:57 45.21801 9.64183 29455 ft 459 kts 115°
2026-05-04 18:57 45.20351 9.68204 29739 ft 457 kts 127°
2026-05-04 18:58 45.19083 9.70585 29927 ft 455 kts 135°
2026-05-04 18:58 45.16767 9.73627 30177 ft 453 kts 147°
2026-05-04 18:58 45.14072 9.75883 30408 ft 449 kts 160°
2026-05-04 18:58 45.11181 9.77564 30664 ft 450 kts 162°
2026-05-04 18:59 45.08255 9.79196 30934 ft 452 kts 162°
2026-05-04 18:59 45.05323 9.80844 31202 ft 454 kts 162°
2026-05-04 18:59 45.02388 9.82517 31525 ft 455 kts 162°
2026-05-04 18:59 44.99453 9.84208 31871 ft 455 kts 162°
2026-05-04 19:00 44.96530 9.85900 32195 ft 455 kts 162°
2026-05-04 19:00 44.93600 9.87597 32515 ft 455 kts 162°
2026-05-04 19:00 44.90668 9.89295 32829 ft 455 kts 162°
2026-05-04 19:00 44.87734 9.90992 33142 ft 455 kts 162°
2026-05-04 19:01 44.84804 9.92685 33451 ft 456 kts 162°
2026-05-04 19:01 44.81871 9.94377 33738 ft 456 kts 162°
2026-05-04 19:01 44.77979 9.96619 34099 ft 456 kts 162°
2026-05-04 19:01 44.75988 9.97765 34277 ft 456 kts 162°
2026-05-04 19:02 44.73049 9.99456 34530 ft 456 kts 163°
2026-05-04 19:02 44.70155 10.01119 34768 ft 456 kts 163°
2026-05-04 19:02 44.67203 10.02814 35002 ft 456 kts 163°
2026-05-04 19:02 44.64282 10.04489 35229 ft 456 kts 163°
2026-05-04 19:03 44.61302 10.06196 35439 ft 457 kts 163°
2026-05-04 19:03 44.58359 10.07879 35503 ft 458 kts 163°
2026-05-04 19:03 44.55402 10.09567 35148 ft 457 kts 163°
2026-05-04 19:03 44.52511 10.11221 35071 ft 454 kts 163°
2026-05-04 19:04 44.49584 10.12889 35192 ft 456 kts 163°
2026-05-04 19:04 44.46638 10.14564 35329 ft 458 kts 164°
2026-05-04 19:04 44.43684 10.16243 35439 ft 458 kts 164°
2026-05-04 19:04 44.40733 10.17919 35573 ft 458 kts 164°
2026-05-04 19:05 44.37780 10.19595 35691 ft 457 kts 164°
2026-05-04 19:05 44.34841 10.21262 35812 ft 456 kts 164°
2026-05-04 19:05 44.31959 10.22896 35932 ft 455 kts 164°
2026-05-04 19:05 44.28954 10.24596 36055 ft 456 kts 164°
2026-05-04 19:06 44.26016 10.26255 36165 ft 456 kts 164°
2026-05-04 19:06 44.23078 10.27913 36304 ft 455 kts 164°
2026-05-04 19:06 44.20141 10.29569 36424 ft 456 kts 164°
2026-05-04 19:06 44.17191 10.31229 36563 ft 456 kts 164°
2026-05-04 19:07 44.14290 10.32862 36684 ft 456 kts 164°
2026-05-04 19:07 44.11315 10.34534 36820 ft 455 kts 164°
2026-05-04 19:07 44.08373 10.36186 36951 ft 455 kts 164°
2026-05-04 19:07 44.05438 10.37832 37082 ft 455 kts 164°
2026-05-04 19:08 43.99607 10.41094 37151 ft 455 kts 164°
2026-05-04 19:08 43.93690 10.44400 37130 ft 454 kts 164°
2026-05-04 19:09 43.87803 10.47683 37115 ft 455 kts 164°
2026-05-04 19:09 43.81918 10.50958 37100 ft 455 kts 164°
2026-05-04 19:10 43.76023 10.54199 37090 ft 455 kts 167°
2026-05-04 19:10 43.70028 10.56990 37105 ft 454 kts 167°
2026-05-04 19:11 43.64063 10.59767 37101 ft 454 kts 168°
2026-05-04 19:11 43.59402 10.61931 37101 ft 454 kts 168°
2026-05-04 19:12 43.50395 10.66102 36502 ft 454 kts 168°
2026-05-04 19:12 43.47383 10.67494 36241 ft 455 kts 168°
2026-05-04 19:13 43.44387 10.68877 35990 ft 455 kts 168°
2026-05-04 19:13 43.41380 10.70264 35732 ft 455 kts 168°
2026-05-04 19:13 43.38372 10.71649 35313 ft 458 kts 168°
2026-05-04 19:13 43.35354 10.73040 34867 ft 455 kts 168°
2026-05-04 19:14 43.32359 10.74420 34302 ft 453 kts 168°
2026-05-04 19:14 43.29407 10.75774 33531 ft 455 kts 168°
2026-05-04 19:14 43.26429 10.77137 32723 ft 457 kts 168°
2026-05-04 19:14 43.23411 10.78516 31861 ft 459 kts 168°
2026-05-04 19:15 43.20355 10.79911 30900 ft 465 kts 168°
2026-05-04 19:15 43.17292 10.81313 30326 ft 460 kts 168°
2026-05-04 19:15 43.14278 10.82697 29869 ft 454 kts 168°
2026-05-04 19:15 43.11296 10.84060 29312 ft 449 kts 167°
2026-05-04 19:16 43.08348 10.85403 28764 ft 443 kts 167°
2026-05-04 19:16 43.05444 10.86724 28246 ft 438 kts 167°
2026-05-04 19:16 43.02573 10.88026 27707 ft 433 kts 167°
2026-05-04 19:16 42.99726 10.89317 27189 ft 428 kts 166°
2026-05-04 19:17 42.96926 10.90586 26669 ft 423 kts 166°
2026-05-04 19:17 42.94139 10.91847 26152 ft 418 kts 166°
2026-05-04 19:17 42.91386 10.93093 25642 ft 414 kts 166°
2026-05-04 19:17 42.88651 10.94328 25128 ft 411 kts 165°
2026-05-04 19:18 42.85951 10.95547 24615 ft 408 kts 165°
2026-05-04 19:18 42.83304 10.96747 24125 ft 405 kts 163°
2026-05-04 19:18 42.80730 10.98443 23572 ft 406 kts 149°
2026-05-04 19:18 42.78573 11.00821 23065 ft 405 kts 136°
2026-05-04 19:19 42.76815 11.03809 22565 ft 403 kts 128°
2026-05-04 19:19 42.75204 11.06896 22052 ft 398 kts 128°
2026-05-04 19:19 42.73609 11.09938 21563 ft 394 kts 128°
2026-05-04 19:19 42.72011 11.12976 21054 ft 391 kts 128°
2026-05-04 19:20 42.70437 11.15963 20560 ft 387 kts 128°
2026-05-04 19:20 42.68924 11.18830 20088 ft 384 kts 128°
2026-05-04 19:20 42.67350 11.21808 19596 ft 382 kts 128°
2026-05-04 19:20 42.65816 11.24707 19115 ft 380 kts 128°
2026-05-04 19:21 42.64279 11.27611 18583 ft 379 kts 128°
2026-05-04 19:21 42.62727 11.30541 18095 ft 375 kts 128°
2026-05-04 19:21 42.61213 11.33398 17612 ft 371 kts 128°
2026-05-04 19:21 42.59708 11.36231 17134 ft 368 kts 128°
2026-05-04 19:22 42.58216 11.39039 16662 ft 365 kts 128°
2026-05-04 19:22 42.56734 11.41824 16186 ft 363 kts 128°
2026-05-04 19:22 42.55264 11.44582 15721 ft 360 kts 128°
2026-05-04 19:22 42.53797 11.47334 15251 ft 358 kts 128°
2026-05-04 19:23 42.52338 11.50068 14781 ft 356 kts 128°
2026-05-04 19:23 42.50887 11.52785 14332 ft 355 kts 128°
2026-05-04 19:23 42.49444 11.55485 13854 ft 353 kts 128°
2026-05-04 19:23 42.48006 11.58172 13382 ft 351 kts 128°
2026-05-04 19:24 42.46576 11.60844 12927 ft 348 kts 128°
2026-05-04 19:24 42.45163 11.63481 12477 ft 344 kts 128°
2026-05-04 19:24 42.43759 11.66099 12027 ft 341 kts 128°
2026-05-04 19:24 42.42369 11.68688 11592 ft 338 kts 128°
2026-05-04 19:25 42.40986 11.71262 11153 ft 335 kts 128°
2026-05-04 19:25 42.39650 11.73748 10931 ft 318 kts 128°
2026-05-04 19:25 42.38394 11.76088 10769 ft 299 kts 128°
2026-05-04 19:25 42.37200 11.78308 10623 ft 281 kts 128°
2026-05-04 19:26 42.36075 11.80398 10399 ft 271 kts 128°
2026-05-04 19:26 42.34969 11.82445 10105 ft 268 kts 128°
2026-05-04 19:26 42.33880 11.84457 9941 ft 265 kts 129°
2026-05-04 19:26 42.32776 11.86497 9644 ft 270 kts 128°
2026-05-04 19:27 42.31674 11.88534 9331 ft 267 kts 128°
2026-05-04 19:27 42.30591 11.90537 9015 ft 264 kts 128°
2026-05-04 19:27 42.29506 11.92544 8697 ft 261 kts 128°
2026-05-04 19:27 42.28439 11.94516 8388 ft 258 kts 129°
2026-05-04 19:28 42.27387 11.96458 8075 ft 255 kts 129°
2026-05-04 19:28 42.26350 11.98371 7778 ft 256 kts 129°
2026-05-04 19:28 42.25286 12.00332 7481 ft 254 kts 129°
2026-05-04 19:28 42.24250 12.02241 7174 ft 251 kts 129°
2026-05-04 19:29 42.23223 12.04132 6874 ft 249 kts 129°
2026-05-04 19:29 42.22207 12.06000 6582 ft 246 kts 129°
2026-05-04 19:29 42.21195 12.07861 6280 ft 246 kts 129°
2026-05-04 19:29 42.20170 12.09740 5979 ft 244 kts 129°
2026-05-04 19:30 42.19167 12.11579 5681 ft 242 kts 129°
2026-05-04 19:30 42.18076 12.13233 5507 ft 229 kts 151°
2026-05-04 19:30 42.16596 12.13780 5435 ft 224 kts 176°
2026-05-04 19:30 42.15026 12.13872 5334 ft 224 kts 176°
2026-05-04 19:31 42.13495 12.14149 5242 ft 223 kts 169°
2026-05-04 19:31 42.11989 12.14659 5148 ft 222 kts 165°
2026-05-04 19:31 42.10512 12.15267 5058 ft 222 kts 164°
2026-05-04 19:31 42.09026 12.15891 4928 ft 223 kts 163°
2026-05-04 19:32 42.07567 12.16503 4688 ft 221 kts 163°
2026-05-04 19:32 42.06106 12.17117 4434 ft 219 kts 163°
2026-05-04 19:32 42.04657 12.17724 4174 ft 218 kts 163°
2026-05-04 19:32 42.03217 12.18329 3905 ft 216 kts 163°
2026-05-04 19:33 42.01783 12.18932 3634 ft 216 kts 163°
2026-05-04 19:33 42.00816 12.19338 3440 ft 216 kts 163°
2026-05-04 19:33 41.99372 12.19944 3151 ft 218 kts 163°
2026-05-04 19:33 41.97492 12.20734 2767 ft 209 kts 163°
2026-05-04 19:34 41.96564 12.21124 2584 ft 203 kts 163°
2026-05-04 19:34 41.95239 12.21679 2309 ft 197 kts 163°
2026-05-04 19:34 41.93959 12.22217 2088 ft 187 kts 163°
2026-05-04 19:34 41.92765 12.22720 1828 ft 172 kts 164°
2026-05-04 19:35 41.91674 12.23177 1577 ft 155 kts 163°
2026-05-04 19:35 41.90707 12.23585 1393 ft 137 kts 163°
2026-05-04 19:35 41.89831 12.23952 1212 ft 130 kts 163°
2026-05-04 19:35 41.88963 12.24315 957 ft 131 kts 163°
2026-05-04 19:36 41.88096 12.24695 787 ft 131 kts 162°
2026-05-04 19:36 41.87229 12.25064 641 ft 131 kts 162°
2026-05-04 19:36 41.86350 12.25432 452 ft 133 kts 162°
2026-05-04 19:36 41.85478 12.25791 242 ft 133 kts 162°
2026-05-04 19:37 41.84606 12.26148 61 ft 129 kts 162°
2026-05-04 19:37 41.83796 12.26490 24 ft 105 kts 162°
2026-05-04 19:37 41.83250 12.26719 19 ft 64 kts 163°
2026-05-04 19:37 41.82857 12.26889 24 ft 55 kts 161°
2026-05-04 19:38 41.82512 12.27034 18 ft 50 kts 163°
2026-05-04 19:38 41.82219 12.27125 14 ft 33 kts 172°
2026-05-04 19:38 41.82023 12.27120 12 ft 23 kts 190°
2026-05-04 19:38 41.81931 12.27095 14 ft 6 kts 192°